Time,TemperatureF,DewpointF,PressureIn,WindDirection,WindDirectionDegrees,WindSpeedMPH,WindSpeedGustMPH,Humidity,HourlyPrecipIn,Conditions,Clouds,dailyrainin,SoftwareType,DateUTC
2013-03-11 00:03:00,22.1,18.7,29.88,NNW,342,16.4,25.0,86,0.00,,,0.00,CWS Microserver 1.4,2013-03-11 05:03:00,
2013-03-11 00:08:00,22.1,18.6,29.88,NW,326,14.1,25.0,86,0.00,,,0.00,CWS Microserver 1.4,2013-03-11 05:08:00,
2013-03-11 00:13:00,22.1,18.6,29.88,NNW,333,16.7,24.6,86,0.00,,,0.00,CWS Microserver 1.4,2013-03-11 05:13:00,
2013-03-11 00:18:00,22.3,18.7,29.88,North,353,12.4,24.9,85,0.00,,,0.00,CWS Microserver 1.4,2013-03-11 05:18:00,
2013-03-11 00:23:00,22.5,18.9,29.88,NNW,347,10.8,24.9,86,0.00,,,0.00,CWS Microserver 1.4,2013-03-11 05:23:00,
2013-03-11 00:28:00,22.3,18.6,29.88,NNW,343,15.4,24.8,85,0.00,,,0.00,CWS Microserver 1.4,2013-03-11 05:28:00,
2013-03-11 00:33:00,22.1,18.4,29.88,NNW,340,19.6,25.3,85,0.00,,,0.00,CWS Microserver 1.4,2013-03-11 05:33:00,
2013-03-11 00:38:00,22.1,18.5,29.88,NNW,340,13.2,25.3,85,0.00,,,0.00,CWS Microserver 1.4,2013-03-11 05:38:00,
2013-03-11 00:43:00,22.1,18.4,29.87,NNW,338,20.2,24.8,85,0.00,,,0.00,CWS Microserver 1.4,2013-03-11 05:43:00,
2013-03-11 00:48:00,22.1,18.6,29.88,NNW,329,6.6,23.3,86,0.00,,,0.00,CWS Microserver 1.4,2013-03-11 05:48:00,
2013-03-11 00:53:00,21.8,18.2,29.87,NNW,338,19.8,23.0,85,0.00,,,0.00,CWS Microserver 1.4,2013-03-11 05:53:00,
2013-03-11 00:58:00,21.6,18.0,29.87,North,349,20.0,24.0,85,0.00,,,0.00,CWS Microserver 1.4,2013-03-11 05:58:00,
2013-03-11 01:03:00,21.6,18.0,29.87,NNW,338,18.7,24.0,85,0.00,,,0.00,CWS Microserver 1.4,2013-03-11 06:03:00,
2013-03-11 01:08:00,21.8,18.3,29.87,NNW,342,16.6,24.2,86,0.00,,,0.00,CWS Microserver 1.4,2013-03-11 06:08:00,
2013-03-11 01:13:00,21.8,18.2,29.87,NNW,341,21.8,24.2,85,0.00,,,0.00,CWS Microserver 1.4,2013-03-11 06:13:00,
2013-03-11 01:18:00,21.8,18.2,29.87,NNW,335,16.8,25.9,85,0.00,,,0.00,CWS Microserver 1.4,2013-03-11 06:18:00,
2013-03-11 01:23:00,21.8,18.1,29.87,NNW,332,18.8,25.9,85,0.00,,,0.00,CWS Microserver 1.4,2013-03-11 06:23:00,
2013-03-11 01:28:00,21.4,17.5,29.87,NNW,341,21.3,26.1,84,0.00,,,0.00,CWS Microserver 1.4,2013-03-11 06:28:00,
2013-03-11 01:33:00,21.2,17.5,29.87,NNW,337,17.7,28.1,85,0.00,,,0.00,CWS Microserver 1.4,2013-03-11 06:33:00,
2013-03-11 01:38:00,21.1,17.5,29.87,NNW,348,18.4,28.1,85,0.00,,,0.00,CWS Microserver 1.4,2013-03-11 06:38:00,
2013-03-11 01:43:00,21.2,17.6,29.87,NNW,341,20.2,24.4,85,0.00,,,0.00,CWS Microserver 1.4,2013-03-11 06:43:00,
2013-03-11 01:48:00,21.4,17.8,29.87,NNW,341,18.0,23.8,85,0.00,,,0.00,CWS Microserver 1.4,2013-03-11 06:48:00,
2013-03-11 01:53:00,21.6,17.8,29.87,NNW,344,17.4,24.8,85,0.00,,,0.00,CWS Microserver 1.4,2013-03-11 06:53:00,
2013-03-11 02:03:00,22.0,18.0,29.86,North,351,14.5,22.8,84,0.00,,,0.00,CWS Microserver 1.4,2013-03-11 07:03:00,
2013-03-11 02:08:00,22.1,18.2,29.86,North,352,12.0,21.8,84,0.00,,,0.00,CWS Microserver 1.4,2013-03-11 07:08:00,
2013-03-11 02:13:00,22.1,18.1,29.86,NNW,339,17.9,20.3,84,0.00,,,0.00,CWS Microserver 1.4,2013-03-11 07:13:00,
2013-03-11 02:18:00,22.0,18.0,29.86,NNW,337,15.1,23.6,84,0.00,,,0.00,CWS Microserver 1.4,2013-03-11 07:18:00,
2013-03-11 02:23:00,22.0,18.0,29.86,NNW,346,16.1,23.6,84,0.00,,,0.00,CWS Microserver 1.4,2013-03-11 07:23:00,
2013-03-11 02:28:00,21.8,17.9,29.86,NNW,336,19.6,22.5,84,0.00,,,0.00,CWS Microserver 1.4,2013-03-11 07:28:00,
2013-03-11 02:33:00,21.2,17.5,29.86,NNW,340,16.3,23.9,85,0.00,,,0.00,CWS Microserver 1.4,2013-03-11 07:33:00,
2013-03-11 02:38:00,21.1,17.2,29.86,North,353,16.0,24.7,84,0.00,,,0.00,CWS Microserver 1.4,2013-03-11 07:38:00,
2013-03-11 02:43:00,21.1,17.4,29.86,NNW,341,17.2,24.8,85,0.00,,,0.00,CWS Microserver 1.4,2013-03-11 07:43:00,
2013-03-11 02:48:00,21.1,17.3,29.86,NNW,335,12.5,24.8,85,0.00,,,0.00,CWS Microserver 1.4,2013-03-11 07:48:00,
2013-03-11 02:53:00,21.2,17.5,29.86,NNW,335,16.8,24.8,85,0.00,,,0.00,CWS Microserver 1.4,2013-03-11 07:53:00,
2013-03-11 02:58:00,21.1,17.3,29.86,NNW,343,17.2,26.4,84,0.00,,,0.00,CWS Microserver 1.4,2013-03-11 07:58:00,
2013-03-11 03:03:00,21.2,17.4,29.86,NNW,346,19.4,26.4,85,0.00,,,0.00,CWS Microserver 1.4,2013-03-11 08:03:00,
2013-03-11 03:08:00,21.2,17.3,29.85,NNW,337,14.9,24.0,84,0.00,,,0.00,CWS Microserver 1.4,2013-03-11 08:08:00,
2013-03-11 03:13:00,21.2,17.3,29.85,NNW,339,17.2,22.2,84,0.00,,,0.00,CWS Microserver 1.4,2013-03-11 08:13:00,
2013-03-11 03:18:00,21.2,17.4,29.85,NW,325,7.7,23.2,85,0.00,,,0.00,CWS Microserver 1.4,2013-03-11 08:18:00,
2013-03-11 03:23:00,20.9,16.9,29.85,NNW,334,18.4,23.6,84,0.00,,,0.00,CWS Microserver 1.4,2013-03-11 08:23:00,
2013-03-11 03:28:00,20.7,17.0,29.85,NNW,348,12.7,24.6,85,0.00,,,0.00,CWS Microserver 1.4,2013-03-11 08:28:00,
2013-03-11 03:33:00,20.5,16.7,29.85,NNW,339,19.9,24.6,84,0.00,,,0.00,CWS Microserver 1.4,2013-03-11 08:33:00,
2013-03-11 03:38:00,20.5,16.8,29.84,NNW,341,18.6,22.0,85,0.00,,,0.00,CWS Microserver 1.4,2013-03-11 08:38:00,
2013-03-11 03:43:00,20.3,16.6,29.84,NNW,333,16.6,21.9,85,0.00,,,0.00,CWS Microserver 1.4,2013-03-11 08:43:00,
2013-03-11 03:48:00,20.2,16.4,29.84,NNW,330,16.7,23.2,85,0.00,,,0.00,CWS Microserver 1.4,2013-03-11 08:48:00,
2013-03-11 03:53:00,20.2,16.6,29.84,NNW,338,14.0,23.2,85,0.00,,,0.00,CWS Microserver 1.4,2013-03-11 08:53:00,
2013-03-11 03:58:00,20.3,16.7,29.84,NW,323,10.6,21.5,85,0.00,,,0.00,CWS Microserver 1.4,2013-03-11 08:58:00,
2013-03-11 04:03:00,20.5,16.7,29.83,NNW,331,7.3,22.6,85,0.00,,,0.00,CWS Microserver 1.4,2013-03-11 09:03:00,
2013-03-11 04:08:00,20.5,16.7,29.83,NNW,331,13.1,22.6,84,0.00,,,0.00,CWS Microserver 1.4,2013-03-11 09:08:00,
2013-03-11 04:13:00,20.7,16.9,29.83,NNW,340,15.4,20.8,84,0.00,,,0.00,CWS Microserver 1.4,2013-03-11 09:13:00,
2013-03-11 04:18:00,20.9,17.1,29.83,NNW,329,10.4,18.9,84,0.00,,,0.00,CWS Microserver 1.4,2013-03-11 09:18:00,
2013-03-11 04:28:00,20.9,16.9,29.83,NNW,336,19.6,20.1,84,0.00,,,0.00,CWS Microserver 1.4,2013-03-11 09:28:00,
2013-03-11 04:33:00,20.7,16.7,29.82,NNW,335,18.1,22.3,84,0.00,,,0.00,CWS Microserver 1.4,2013-03-11 09:33:00,
2013-03-11 04:38:00,20.7,16.7,29.83,NW,326,13.6,22.3,84,0.00,,,0.00,CWS Microserver 1.4,2013-03-11 09:38:00,
2013-03-11 04:43:00,20.7,16.7,29.83,NW,316,18.9,20.0,84,0.00,,,0.00,CWS Microserver 1.4,2013-03-11 09:43:00,
2013-03-11 04:48:00,20.7,16.5,29.83,North,350,17.4,22.4,83,0.00,,,0.00,CWS Microserver 1.4,2013-03-11 09:48:00,
2013-03-11 04:53:00,20.7,16.7,29.82,NNW,337,16.9,22.4,84,0.00,,,0.00,CWS Microserver 1.4,2013-03-11 09:53:00,
2013-03-11 04:58:00,20.7,16.5,29.82,NNW,338,18.0,22.2,83,0.00,,,0.00,CWS Microserver 1.4,2013-03-11 09:58:00,
2013-03-11 05:03:00,20.7,16.5,29.83,NNW,335,14.2,22.2,83,0.00,,,0.00,CWS Microserver 1.4,2013-03-11 10:03:00,
2013-03-11 05:08:00,20.5,16.6,29.83,NW,316,23.5,23.5,84,0.00,,,0.00,CWS Microserver 1.4,2013-03-11 10:08:00,
2013-03-11 05:13:00,20.3,16.2,29.83,NNW,339,11.3,23.5,83,0.00,,,0.00,CWS Microserver 1.4,2013-03-11 10:13:00,
2013-03-11 05:23:00,20.2,16.4,29.82,NW,319,8.0,19.9,84,0.00,,,0.00,CWS Microserver 1.4,2013-03-11 10:23:00,
2013-03-11 05:28:00,20.2,16.3,29.82,NNW,332,18.4,18.9,84,0.00,,,0.00,CWS Microserver 1.4,2013-03-11 10:28:00,
2013-03-11 05:38:00,20.0,16.0,29.82,NNW,327,6.0,18.4,84,0.00,,,0.00,CWS Microserver 1.4,2013-03-11 10:38:00,
2013-03-11 05:43:00,19.8,16.0,29.82,NNW,328,12.3,19.4,84,0.00,,,0.00,CWS Microserver 1.4,2013-03-11 10:43:00,
2013-03-11 05:48:00,19.8,15.9,29.82,NNW,339,11.3,19.4,84,0.00,,,0.00,CWS Microserver 1.4,2013-03-11 10:48:00,
2013-03-11 05:53:00,19.8,16.0,29.82,NNW,337,14.9,18.8,84,0.00,,,0.00,CWS Microserver 1.4,2013-03-11 10:53:00,
2013-03-11 05:58:00,20.0,16.1,29.82,NNW,337,12.8,18.9,84,0.00,,,0.00,CWS Microserver 1.4,2013-03-11 10:58:00,
2013-03-11 06:03:00,20.2,16.1,29.82,NNW,343,11.0,20.2,83,0.00,,,0.00,CWS Microserver 1.4,2013-03-11 11:03:00,
2013-03-11 06:08:00,20.5,16.4,29.82,NNW,334,12.8,20.2,83,0.00,,,0.00,CWS Microserver 1.4,2013-03-11 11:08:00,
2013-03-11 06:13:00,20.7,16.7,29.82,NNW,336,12.4,19.9,84,0.00,,,0.00,CWS Microserver 1.4,2013-03-11 11:13:00,
2013-03-11 06:18:00,20.9,16.7,29.82,NNW,339,10.1,20.6,83,0.00,,,0.00,CWS Microserver 1.4,2013-03-11 11:18:00,
2013-03-11 06:23:00,20.7,16.5,29.82,NNW,344,10.5,20.6,83,0.00,,,0.00,CWS Microserver 1.4,2013-03-11 11:23:00,
2013-03-11 06:28:00,20.7,16.5,29.82,NW,322,9.4,20.3,83,0.00,,,0.00,CWS Microserver 1.4,2013-03-11 11:28:00,
2013-03-11 06:33:00,20.7,16.5,29.82,NNW,328,13.7,19.2,83,0.00,,,0.00,CWS Microserver 1.4,2013-03-11 11:33:00,
2013-03-11 06:43:00,20.3,15.9,29.83,NW,326,19.3,22.8,82,0.00,,,0.00,CWS Microserver 1.4,2013-03-11 11:43:00,
2013-03-11 06:48:00,20.0,15.7,29.83,NW,321,17.6,23.3,83,0.00,,,0.00,CWS Microserver 1.4,2013-03-11 11:48:00,
2013-03-11 06:53:00,19.6,15.4,29.83,NW,315,11.1,23.3,83,0.00,,,0.00,CWS Microserver 1.4,2013-03-11 11:53:00,
2013-03-11 06:58:00,19.4,15.2,29.83,NNW,334,15.2,22.3,83,0.00,,,0.00,CWS Microserver 1.4,2013-03-11 11:58:00,
2013-03-11 07:03:00,19.3,15.2,29.83,NW,321,10.5,20.8,83,0.00,,,0.00,CWS Microserver 1.4,2013-03-11 12:03:00,
2013-03-11 07:08:00,19.3,15.2,29.83,NNW,332,13.6,20.8,83,0.00,,,0.00,CWS Microserver 1.4,2013-03-11 12:08:00,
2013-03-11 07:13:00,19.3,15.1,29.83,NW,326,13.9,18.3,83,0.00,,,0.00,CWS Microserver 1.4,2013-03-11 12:13:00,
2013-03-11 07:18:00,19.3,15.3,29.83,NW,313,12.7,18.3,84,0.00,,,0.00,CWS Microserver 1.4,2013-03-11 12:18:00,
2013-03-11 07:23:00,19.3,15.3,29.83,NNW,332,14.8,18.5,84,0.00,,,0.00,CWS Microserver 1.4,2013-03-11 12:23:00,
2013-03-11 07:28:00,19.3,15.3,29.83,NW,320,10.2,19.2,84,0.00,,,0.00,CWS Microserver 1.4,2013-03-11 12:28:00,
2013-03-11 07:33:00,19.3,15.3,29.83,NW,320,13.4,19.2,84,0.00,,,0.00,CWS Microserver 1.4,2013-03-11 12:33:00,
2013-03-11 07:38:00,19.4,15.4,29.83,NNW,337,16.6,20.6,84,0.00,,,0.00,CWS Microserver 1.4,2013-03-11 12:38:00,
2013-03-11 07:43:00,19.1,15.1,29.83,NW,324,15.0,21.1,84,0.00,,,0.00,CWS Microserver 1.4,2013-03-11 12:43:00,
2013-03-11 07:48:00,19.1,15.1,29.83,NW,318,13.6,21.1,84,0.00,,,0.00,CWS Microserver 1.4,2013-03-11 12:48:00,
2013-03-11 07:53:00,18.7,15.0,29.83,NNW,337,6.9,19.1,85,0.00,,,0.00,CWS Microserver 1.4,2013-03-11 12:53:00,
2013-03-11 07:58:00,18.7,15.0,29.83,NNW,330,11.5,19.1,85,0.00,,,0.00,CWS Microserver 1.4,2013-03-11 12:58:00,
2013-03-11 08:03:00,18.7,15.1,29.84,NW,319,10.8,18.2,85,0.00,,,0.00,CWS Microserver 1.4,2013-03-11 13:03:00,
2013-03-11 08:08:00,18.7,15.0,29.84,NNW,334,12.6,17.7,85,0.00,,,0.00,CWS Microserver 1.4,2013-03-11 13:08:00,
2013-03-11 08:13:00,18.5,14.8,29.83,NNW,329,12.3,17.7,85,0.00,,,0.00,CWS Microserver 1.4,2013-03-11 13:13:00,
2013-03-11 08:18:00,18.7,15.1,29.84,NW,326,7.7,17.1,85,0.00,,,0.00,CWS Microserver 1.4,2013-03-11 13:18:00,
2013-03-11 08:23:00,18.7,14.9,29.84,NW,318,11.5,17.1,84,0.00,,,0.00,CWS Microserver 1.4,2013-03-11 13:23:00,
2013-03-11 08:28:00,18.9,15.0,29.84,NNW,338,10.0,17.3,84,0.00,,,0.00,CWS Microserver 1.4,2013-03-11 13:28:00,
2013-03-11 08:33:00,18.7,14.8,29.84,NW,319,9.8,17.3,84,0.00,,,0.00,CWS Microserver 1.4,2013-03-11 13:33:00,
2013-03-11 08:38:00,18.7,14.7,29.84,NW,322,12.4,17.6,84,0.00,,,0.00,CWS Microserver 1.4,2013-03-11 13:38:00,
2013-03-11 08:43:00,18.7,14.7,29.84,NW,321,10.9,18.0,84,0.00,,,0.00,CWS Microserver 1.4,2013-03-11 13:43:00,
2013-03-11 08:48:00,18.7,14.8,29.84,NNW,327,9.6,18.0,84,0.00,,,0.00,CWS Microserver 1.4,2013-03-11 13:48:00,
2013-03-11 08:58:00,19.1,15.0,29.84,NNW,342,7.1,16.5,83,0.00,,,0.00,CWS Microserver 1.4,2013-03-11 13:58:00,
2013-03-11 09:03:00,18.9,14.5,29.83,NNW,344,14.9,16.9,82,0.00,,,0.00,CWS Microserver 1.4,2013-03-11 14:03:00,
2013-03-11 09:08:00,19.1,14.7,29.84,NNW,339,11.4,16.9,82,0.00,,,0.00,CWS Microserver 1.4,2013-03-11 14:08:00,
2013-03-11 09:13:00,19.3,15.2,29.84,NW,320,6.7,16.7,83,0.00,,,0.00,CWS Microserver 1.4,2013-03-11 14:13:00,
2013-03-11 09:18:00,19.6,15.4,29.84,NNW,336,7.5,15.6,83,0.00,,,0.00,CWS Microserver 1.4,2013-03-11 14:18:00,
2013-03-11 09:23:00,19.8,15.5,29.84,NNW,329,5.9,15.9,83,0.00,,,0.00,CWS Microserver 1.4,2013-03-11 14:23:00,
2013-03-11 09:28:00,19.8,15.4,29.84,NW,323,10.9,15.9,82,0.00,,,0.00,CWS Microserver 1.4,2013-03-11 14:28:00,
2013-03-11 09:43:00,19.3,14.8,29.83,NW,321,15.4,22.5,82,0.00,,,0.00,CWS Microserver 1.4,2013-03-11 14:43:00,
2013-03-11 09:48:00,19.3,14.7,29.83,NW,314,9.1,21.7,82,0.00,,,0.00,CWS Microserver 1.4,2013-03-11 14:48:00,
2013-03-11 09:53:00,19.3,14.9,29.83,NNW,328,8.5,20.1,82,0.00,,,0.00,CWS Microserver 1.4,2013-03-11 14:53:00,
2013-03-11 09:58:00,19.1,14.9,29.83,NW,315,13.5,20.0,83,0.00,,,0.00,CWS Microserver 1.4,2013-03-11 14:58:00,
2013-03-11 10:03:00,19.1,14.5,29.84,NW,311,9.4,20.0,82,0.00,,,0.00,CWS Microserver 1.4,2013-03-11 15:03:00,
2013-03-11 10:08:00,18.9,14.6,29.84,NW,318,16.5,20.1,83,0.00,,,0.00,CWS Microserver 1.4,2013-03-11 15:08:00,
2013-03-11 10:13:00,18.9,14.3,29.84,NW,319,10.7,20.1,82,0.00,,,0.00,CWS Microserver 1.4,2013-03-11 15:13:00,
2013-03-11 10:18:00,19.1,14.7,29.84,NW,314,14.6,17.4,82,0.00,,,0.00,CWS Microserver 1.4,2013-03-11 15:18:00,
2013-03-11 10:23:00,19.1,14.5,29.84,NNW,328,16.5,19.3,82,0.00,,,0.00,CWS Microserver 1.4,2013-03-11 15:23:00,
2013-03-11 10:28:00,18.9,14.3,29.84,NW,323,12.2,19.3,82,0.00,,,0.00,CWS Microserver 1.4,2013-03-11 15:28:00,
2013-03-11 10:33:00,18.9,14.2,29.84,NNW,330,13.6,17.9,81,0.00,,,0.00,CWS Microserver 1.4,2013-03-11 15:33:00,
2013-03-11 10:38:00,19.1,14.3,29.84,NW,322,11.8,17.9,81,0.00,,,0.00,CWS Microserver 1.4,2013-03-11 15:38:00,
2013-03-11 10:43:00,19.4,14.6,29.84,NNW,331,9.2,15.5,81,0.00,,,0.00,CWS Microserver 1.4,2013-03-11 15:43:00,
2013-03-11 10:48:00,19.4,14.6,29.84,NNW,330,7.5,15.6,81,0.00,,,0.00,CWS Microserver 1.4,2013-03-11 15:48:00,
2013-03-11 10:58:00,19.8,15.4,29.84,NNW,329,10.7,18.3,82,0.00,,,0.00,CWS Microserver 1.4,2013-03-11 15:58:00,
2013-03-11 11:03:00,20.2,15.1,29.84,NNW,337,8.3,18.3,80,0.00,,,0.00,CWS Microserver 1.4,2013-03-11 16:03:00,
2013-03-11 11:08:00,20.2,15.0,29.84,NNW,328,13.8,17.7,79,0.00,,,0.00,CWS Microserver 1.4,2013-03-11 16:08:00,
2013-03-11 11:13:00,20.0,15.1,29.84,NNW,341,6.9,17.7,81,0.00,,,0.00,CWS Microserver 1.4,2013-03-11 16:13:00,
2013-03-11 11:18:00,20.0,14.9,29.84,NNW,333,12.9,19.3,80,0.00,,,0.00,CWS Microserver 1.4,2013-03-11 16:18:00,
2013-03-11 11:23:00,20.3,14.8,29.84,NNW,332,14.7,19.3,78,0.00,,,0.00,CWS Microserver 1.4,2013-03-11 16:23:00,
2013-03-11 11:28:00,20.2,14.8,29.84,NW,313,12.4,17.7,79,0.00,,,0.00,CWS Microserver 1.4,2013-03-11 16:28:00,
2013-03-11 11:33:00,20.7,15.3,29.84,NNW,339,19.5,19.5,79,0.00,,,0.00,CWS Microserver 1.4,2013-03-11 16:33:00,
2013-03-11 11:38:00,20.5,15.3,29.84,NW,313,12.5,19.9,79,0.00,,,0.00,CWS Microserver 1.4,2013-03-11 16:38:00,
2013-03-11 11:43:00,20.9,15.6,29.84,NW,309,13.0,19.9,79,0.00,,,0.00,CWS Microserver 1.4,2013-03-11 16:43:00,
2013-03-11 11:48:00,21.1,15.6,29.84,NW,315,13.5,18.2,79,0.00,,,0.00,CWS Microserver 1.4,2013-03-11 16:48:00,
2013-03-11 11:53:00,21.4,16.0,29.84,NW,326,9.6,18.6,79,0.00,,,0.00,CWS Microserver 1.4,2013-03-11 16:53:00,
2013-03-11 11:58:00,21.4,15.8,29.83,NW,320,15.6,18.6,78,0.00,,,0.00,CWS Microserver 1.4,2013-03-11 16:58:00,
2013-03-11 12:03:00,21.8,16.3,29.83,NW,318,13.4,18.3,78,0.00,,,0.00,CWS Microserver 1.4,2013-03-11 17:03:00,
2013-03-11 12:08:00,22.0,16.1,29.83,NNW,329,4.8,18.2,77,0.00,,,0.00,CWS Microserver 1.4,2013-03-11 17:08:00,
2013-03-11 12:13:00,22.3,16.3,29.83,NW,317,13.0,16.5,77,0.00,,,0.00,CWS Microserver 1.4,2013-03-11 17:13:00,
2013-03-11 12:18:00,22.7,16.9,29.83,NNW,342,9.6,18.2,78,0.00,,,0.00,CWS Microserver 1.4,2013-03-11 17:18:00,
2013-03-11 12:23:00,22.7,17.4,29.83,NW,310,10.9,19.0,79,0.00,,,0.00,CWS Microserver 1.4,2013-03-11 17:23:00,
2013-03-11 12:28:00,22.7,17.1,29.83,NW,312,15.8,19.0,78,0.00,,,0.00,CWS Microserver 1.4,2013-03-11 17:28:00,
2013-03-11 12:33:00,23.0,17.2,29.82,NNW,338,12.7,20.0,78,0.00,,,0.00,CWS Microserver 1.4,2013-03-11 17:33:00,
2013-03-11 12:38:00,23.2,16.5,29.82,NW,315,15.4,20.0,75,0.00,,,0.00,CWS Microserver 1.4,2013-03-11 17:38:00,
2013-03-11 12:43:00,23.2,17.3,29.82,NW,307,11.0,18.2,77,0.00,,,0.00,CWS Microserver 1.4,2013-03-11 17:43:00,
2013-03-11 12:48:00,23.4,17.2,29.82,NW,314,7.9,19.1,76,0.00,,,0.00,CWS Microserver 1.4,2013-03-11 17:48:00,
2013-03-11 12:53:00,23.6,16.8,29.82,NW,326,16.1,19.5,75,0.00,,,0.00,CWS Microserver 1.4,2013-03-11 17:53:00,
2013-03-11 12:58:00,23.6,17.1,29.82,NW,317,16.1,19.9,75,0.00,,,0.00,CWS Microserver 1.4,2013-03-11 17:58:00,
2013-03-11 13:03:00,23.6,16.7,29.81,NNW,332,12.9,19.9,74,0.00,,,0.00,CWS Microserver 1.4,2013-03-11 18:03:00,
2013-03-11 13:08:00,23.8,16.8,29.81,NW,323,15.9,18.6,74,0.00,,,0.00,CWS Microserver 1.4,2013-03-11 18:08:00,
2013-03-11 13:13:00,24.3,17.5,29.81,NW,311,9.4,18.0,74,0.00,,,0.00,CWS Microserver 1.4,2013-03-11 18:13:00,
2013-03-11 13:18:00,24.1,17.8,29.81,NW,315,14.6,17.5,76,0.00,,,0.00,CWS Microserver 1.4,2013-03-11 18:18:00,
2013-03-11 13:23:00,24.5,16.9,29.81,NNW,339,8.1,18.2,72,0.00,,,0.00,CWS Microserver 1.4,2013-03-11 18:23:00,
2013-03-11 13:28:00,24.5,16.7,29.81,NNW,340,13.4,18.2,71,0.00,,,0.00,CWS Microserver 1.4,2013-03-11 18:28:00,
2013-03-11 13:33:00,24.3,17.0,29.81,NW,318,13.7,18.1,73,0.00,,,0.00,CWS Microserver 1.4,2013-03-11 18:33:00,
2013-03-11 13:38:00,24.5,17.0,29.81,NNW,333,12.3,18.1,72,0.00,,,0.00,CWS Microserver 1.4,2013-03-11 18:38:00,
2013-03-11 13:43:00,24.7,17.2,29.81,NW,320,10.5,16.8,72,0.00,,,0.00,CWS Microserver 1.4,2013-03-11 18:43:00,
2013-03-11 13:48:00,24.7,16.7,29.81,NW,314,15.6,17.5,71,0.00,,,0.00,CWS Microserver 1.4,2013-03-11 18:48:00,
2013-03-11 13:53:00,24.7,17.2,29.80,NNW,327,15.9,17.6,72,0.00,,,0.00,CWS Microserver 1.4,2013-03-11 18:53:00,
2013-03-11 14:03:00,24.5,16.6,29.80,NW,325,11.4,20.1,71,0.00,,,0.00,CWS Microserver 1.4,2013-03-11 19:03:00,
2013-03-11 14:08:00,24.7,17.4,29.80,NW,311,12.7,20.1,73,0.00,,,0.00,CWS Microserver 1.4,2013-03-11 19:08:00,
2013-03-11 14:13:00,24.8,17.8,29.80,NNW,329,11.9,17.4,74,0.00,,,0.00,CWS Microserver 1.4,2013-03-11 19:13:00,
2013-03-11 14:18:00,24.7,17.8,29.80,NW,309,14.5,16.5,74,0.00,,,0.00,CWS Microserver 1.4,2013-03-11 19:18:00,
2013-03-11 14:23:00,24.8,17.0,29.80,NNW,330,14.6,16.8,71,0.00,,,0.00,CWS Microserver 1.4,2013-03-11 19:23:00,
2013-03-11 14:28:00,24.5,17.3,29.80,NW,322,10.6,16.8,73,0.00,,,0.00,CWS Microserver 1.4,2013-03-11 19:28:00,
2013-03-11 14:33:00,24.5,17.4,29.80,NNW,335,7.1,16.4,74,0.00,,,0.00,CWS Microserver 1.4,2013-03-11 19:33:00,
2013-03-11 14:38:00,24.8,17.5,29.80,NNW,333,11.2,16.4,73,0.00,,,0.00,CWS Microserver 1.4,2013-03-11 19:38:00,
2013-03-11 14:43:00,24.8,17.4,29.80,NNW,330,6.5,16.0,73,0.00,,,0.00,CWS Microserver 1.4,2013-03-11 19:43:00,
2013-03-11 14:48:00,24.5,16.5,29.80,NNW,345,11.2,18.9,71,0.00,,,0.00,CWS Microserver 1.4,2013-03-11 19:48:00,
2013-03-11 14:53:00,24.5,17.2,29.80,North,350,9.7,18.9,73,0.00,,,0.00,CWS Microserver 1.4,2013-03-11 19:53:00,
2013-03-11 14:58:00,24.5,16.5,29.80,NNW,337,11.4,17.0,71,0.00,,,0.00,CWS Microserver 1.4,2013-03-11 19:58:00,
2013-03-11 15:03:00,24.3,16.6,29.80,NW,325,14.5,16.4,72,0.00,,,0.00,CWS Microserver 1.4,2013-03-11 20:03:00,
2013-03-11 15:08:00,24.3,16.7,29.80,NNW,338,13.3,16.4,72,0.00,,,0.00,CWS Microserver 1.4,2013-03-11 20:08:00,
2013-03-11 15:13:00,24.5,15.4,29.80,NNW,338,14.4,17.9,67,0.00,,,0.00,CWS Microserver 1.4,2013-03-11 20:13:00,
2013-03-11 15:18:00,24.3,16.2,29.80,NW,325,10.4,17.9,70,0.00,,,0.00,CWS Microserver 1.4,2013-03-11 20:18:00,
2013-03-11 15:23:00,23.9,15.4,29.80,NNW,340,10.4,19.9,69,0.00,,,0.00,CWS Microserver 1.4,2013-03-11 20:23:00,
2013-03-11 15:28:00,24.3,16.7,29.80,NNW,333,13.8,19.9,72,0.00,,,0.00,CWS Microserver 1.4,2013-03-11 20:28:00,
2013-03-11 15:33:00,24.5,15.7,29.80,NNW,332,10.8,18.0,68,0.00,,,0.00,CWS Microserver 1.4,2013-03-11 20:33:00,
2013-03-11 15:38:00,24.3,16.6,29.81,NW,309,10.5,18.0,72,0.00,,,0.00,CWS Microserver 1.4,2013-03-11 20:38:00,
2013-03-11 15:43:00,24.7,16.6,29.81,NNW,331,15.2,17.2,71,0.00,,,0.00,CWS Microserver 1.4,2013-03-11 20:43:00,
2013-03-11 15:48:00,24.7,16.9,29.81,NNW,328,16.5,20.1,71,0.00,,,0.00,CWS Microserver 1.4,2013-03-11 20:48:00,
2013-03-11 15:53:00,24.7,17.1,29.81,NNW,330,12.7,20.1,72,0.00,,,0.00,CWS Microserver 1.4,2013-03-11 20:53:00,
2013-03-11 15:58:00,24.7,17.3,29.82,NW,323,12.5,19.1,73,0.00,,,0.00,CWS Microserver 1.4,2013-03-11 20:58:00,
2013-03-11 16:03:00,25.0,17.8,29.82,NW,314,16.8,20.2,73,0.00,,,0.00,CWS Microserver 1.4,2013-03-11 21:03:00,
2013-03-11 16:08:00,24.7,17.0,29.82,NW,321,16.1,21.9,72,0.00,,,0.00,CWS Microserver 1.4,2013-03-11 21:08:00,
2013-03-11 16:13:00,24.8,17.6,29.82,NNW,327,13.5,21.9,73,0.00,,,0.00,CWS Microserver 1.4,2013-03-11 21:13:00,
2013-03-11 16:18:00,24.8,16.2,29.82,NNW,328,14.5,20.1,69,0.00,,,0.00,CWS Microserver 1.4,2013-03-11 21:18:00,
2013-03-11 16:23:00,25.4,17.9,29.82,NW,324,14.3,20.1,72,0.00,,,0.00,CWS Microserver 1.4,2013-03-11 21:23:00,
2013-03-11 16:28:00,25.4,16.9,29.82,NW,315,19.4,19.4,69,0.00,,,0.00,CWS Microserver 1.4,2013-03-11 21:28:00,
2013-03-11 16:33:00,25.4,16.9,29.82,NW,324,11.7,20.0,69,0.00,,,0.00,CWS Microserver 1.4,2013-03-11 21:33:00,
2013-03-11 16:38:00,25.6,16.5,29.82,NW,310,9.3,20.0,67,0.00,,,0.00,CWS Microserver 1.4,2013-03-11 21:38:00,
2013-03-11 16:43:00,25.4,16.3,29.82,NW,318,15.0,19.8,67,0.00,,,0.00,CWS Microserver 1.4,2013-03-11 21:43:00,
2013-03-11 16:48:00,25.6,16.6,29.82,NW,321,10.3,19.8,68,0.00,,,0.00,CWS Microserver 1.4,2013-03-11 21:48:00,
2013-03-11 16:53:00,25.7,17.8,29.82,NNW,332,13.7,19.0,71,0.00,,,0.00,CWS Microserver 1.4,2013-03-11 21:53:00,
2013-03-11 16:58:00,25.9,17.9,29.82,NW,306,15.6,18.4,71,0.00,,,0.00,CWS Microserver 1.4,2013-03-11 21:58:00,
2013-03-11 17:03:00,26.1,17.3,29.82,NNW,342,12.2,19.4,68,0.00,,,0.00,CWS Microserver 1.4,2013-03-11 22:03:00,
2013-03-11 17:08:00,26.3,17.6,29.82,NNW,329,8.7,19.4,69,0.00,,,0.00,CWS Microserver 1.4,2013-03-11 22:08:00,
2013-03-11 17:13:00,26.3,18.0,29.82,NW,322,14.4,18.6,70,0.00,,,0.00,CWS Microserver 1.4,2013-03-11 22:13:00,
2013-03-11 17:18:00,26.6,17.8,29.82,NW,321,12.8,18.4,69,0.00,,,0.00,CWS Microserver 1.4,2013-03-11 22:18:00,
2013-03-11 17:23:00,26.3,17.5,29.82,NNW,331,6.6,18.6,69,0.00,,,0.00,CWS Microserver 1.4,2013-03-11 22:23:00,
2013-03-11 17:28:00,26.6,18.1,29.82,NW,311,11.7,18.6,69,0.00,,,0.00,CWS Microserver 1.4,2013-03-11 22:28:00,
2013-03-11 17:33:00,26.5,17.1,29.82,NW,326,13.0,17.0,67,0.00,,,0.00,CWS Microserver 1.4,2013-03-11 22:33:00,
2013-03-11 17:38:00,26.3,17.9,29.82,NW,316,12.0,17.0,70,0.00,,,0.00,CWS Microserver 1.4,2013-03-11 22:38:00,
2013-03-11 17:43:00,26.3,17.3,29.82,NW,326,10.4,16.3,68,0.00,,,0.00,CWS Microserver 1.4,2013-03-11 22:43:00,
2013-03-11 17:48:00,26.1,17.2,29.82,NW,318,11.5,18.3,68,0.00,,,0.00,CWS Microserver 1.4,2013-03-11 22:48:00,
2013-03-11 17:53:00,26.1,17.7,29.82,NNW,335,10.6,18.3,70,0.00,,,0.00,CWS Microserver 1.4,2013-03-11 22:53:00,
2013-03-11 17:58:00,26.3,18.0,29.82,NNW,328,7.5,16.1,70,0.00,,,0.00,CWS Microserver 1.4,2013-03-11 22:58:00,
2013-03-11 18:03:00,26.1,17.4,29.82,NW,320,12.2,16.9,69,0.00,,,0.00,CWS Microserver 1.4,2013-03-11 23:03:00,
2013-03-11 18:08:00,26.3,18.2,29.82,NW,323,7.8,16.9,71,0.00,,,0.00,CWS Microserver 1.4,2013-03-11 23:08:00,
2013-03-11 18:13:00,26.5,18.1,29.82,NW,323,7.5,14.2,70,0.00,,,0.00,CWS Microserver 1.4,2013-03-11 23:13:00,
2013-03-11 18:18:00,26.3,18.0,29.82,NW,318,9.0,15.7,70,0.00,,,0.00,CWS Microserver 1.4,2013-03-11 23:18:00,
2013-03-11 18:23:00,26.6,18.1,29.82,NW,317,9.5,15.7,69,0.00,,,0.00,CWS Microserver 1.4,2013-03-11 23:23:00,
2013-03-11 18:28:00,26.5,18.0,29.82,NW,319,11.6,13.7,69,0.00,,,0.00,CWS Microserver 1.4,2013-03-11 23:28:00,
2013-03-11 18:33:00,26.5,18.4,29.82,NW,316,7.2,13.2,71,0.00,,,0.00,CWS Microserver 1.4,2013-03-11 23:33:00,
2013-03-11 18:38:00,26.5,18.4,29.82,NW,326,11.0,13.3,71,0.00,,,0.00,CWS Microserver 1.4,2013-03-11 23:38:00,
2013-03-11 18:48:00,26.3,17.0,29.82,NW,323,11.9,12.3,67,0.00,,,0.00,CWS Microserver 1.4,2013-03-11 23:48:00,
2013-03-11 18:53:00,26.1,17.2,29.83,NW,324,9.7,12.6,68,0.00,,,0.00,CWS Microserver 1.4,2013-03-11 23:53:00,
2013-03-11 18:58:00,26.1,17.2,29.83,NW,325,9.9,14.7,68,0.00,,,0.00,CWS Microserver 1.4,2013-03-11 23:58:00,
2013-03-11 19:03:00,25.7,17.0,29.83,NW,322,9.1,15.2,69,0.00,,,0.00,CWS Microserver 1.4,2013-03-12 00:03:00,
2013-03-11 19:08:00,25.6,17.7,29.83,NW,314,7.5,15.2,71,0.00,,,0.00,CWS Microserver 1.4,2013-03-12 00:08:00,
2013-03-11 19:13:00,25.6,16.7,29.84,NW,314,8.9,13.6,68,0.00,,,0.00,CWS Microserver 1.4,2013-03-12 00:13:00,
2013-03-11 19:18:00,25.6,17.2,29.84,NW,318,10.7,13.6,70,0.00,,,0.00,CWS Microserver 1.4,2013-03-12 00:18:00,
2013-03-11 19:23:00,25.4,17.2,29.84,NW,310,9.6,12.5,70,0.00,,,0.00,CWS Microserver 1.4,2013-03-12 00:23:00,
2013-03-11 19:28:00,25.6,17.2,29.84,NW,311,8.5,12.2,70,0.00,,,0.00,CWS Microserver 1.4,2013-03-12 00:28:00,
2013-03-11 19:33:00,25.7,17.1,29.85,NW,309,9.0,12.4,69,0.00,,,0.00,CWS Microserver 1.4,2013-03-12 00:33:00,
2013-03-11 19:38:00,25.7,16.8,29.85,NNW,332,8.4,12.4,68,0.00,,,0.00,CWS Microserver 1.4,2013-03-12 00:38:00,
2013-03-11 19:43:00,25.7,16.3,29.85,NW,317,12.6,14.1,67,0.00,,,0.00,CWS Microserver 1.4,2013-03-12 00:43:00,
2013-03-11 19:48:00,25.7,16.1,29.85,NW,317,9.5,15.1,66,0.00,,,0.00,CWS Microserver 1.4,2013-03-12 00:48:00,
2013-03-11 19:58:00,25.7,15.6,29.86,NW,309,9.4,14.7,65,0.00,,,0.00,CWS Microserver 1.4,2013-03-12 00:58:00,
2013-03-11 20:03:00,25.7,15.0,29.85,NW,306,7.9,14.7,63,0.00,,,0.00,CWS Microserver 1.4,2013-03-12 01:03:00,
2013-03-11 20:08:00,25.7,15.5,29.86,NW,314,7.8,13.3,64,0.00,,,0.00,CWS Microserver 1.4,2013-03-12 01:08:00,
2013-03-11 20:13:00,25.7,15.9,29.86,NW,314,9.2,12.8,66,0.00,,,0.00,CWS Microserver 1.4,2013-03-12 01:13:00,
2013-03-11 20:18:00,25.7,15.9,29.86,NNW,335,7.3,12.5,65,0.00,,,0.00,CWS Microserver 1.4,2013-03-12 01:18:00,
2013-03-11 20:23:00,25.7,16.6,29.86,NW,305,6.6,10.8,68,0.00,,,0.00,CWS Microserver 1.4,2013-03-12 01:23:00,
2013-03-11 20:28:00,25.7,16.0,29.86,NNW,327,9.4,11.4,66,0.00,,,0.00,CWS Microserver 1.4,2013-03-12 01:28:00,
2013-03-11 20:33:00,25.9,17.4,29.87,NW,323,4.2,11.4,69,0.00,,,0.00,CWS Microserver 1.4,2013-03-12 01:33:00,
2013-03-11 20:38:00,25.9,17.3,29.87,NW,314,9.3,10.4,69,0.00,,,0.00,CWS Microserver 1.4,2013-03-12 01:38:00,
2013-03-11 20:43:00,25.9,17.0,29.87,NW,308,6.9,11.8,68,0.00,,,0.00,CWS Microserver 1.4,2013-03-12 01:43:00,
2013-03-11 20:48:00,25.9,17.2,29.87,NW,312,8.7,11.8,69,0.00,,,0.00,CWS Microserver 1.4,2013-03-12 01:48:00,
2013-03-11 20:53:00,25.9,17.4,29.87,NW,305,8.6,11.7,69,0.00,,,0.00,CWS Microserver 1.4,2013-03-12 01:53:00,
2013-03-11 20:58:00,25.9,17.4,29.87,NW,321,7.2,9.7,69,0.00,,,0.00,CWS Microserver 1.4,2013-03-12 01:58:00,
2013-03-11 21:03:00,25.9,17.7,29.87,NW,307,7.8,10.2,70,0.00,,,0.00,CWS Microserver 1.4,2013-03-12 02:03:00,
2013-03-11 21:08:00,25.9,18.1,29.87,WNW,290,6.3,11.2,71,0.00,,,0.00,CWS Microserver 1.4,2013-03-12 02:08:00,
2013-03-11 21:13:00,26.1,19.0,29.87,NW,312,7.3,11.2,74,0.00,,,0.00,CWS Microserver 1.4,2013-03-12 02:13:00,
2013-03-11 21:18:00,26.1,18.9,29.87,WNW,284,8.3,11.2,73,0.00,,,0.00,CWS Microserver 1.4,2013-03-12 02:18:00,
2013-03-11 21:23:00,26.3,19.4,29.87,NW,310,11.7,14.4,74,0.00,,,0.00,CWS Microserver 1.4,2013-03-12 02:23:00,
2013-03-11 21:28:00,26.3,19.8,29.87,NW,304,7.1,14.4,76,0.00,,,0.00,CWS Microserver 1.4,2013-03-12 02:28:00,
2013-03-11 21:33:00,26.3,20.1,29.87,WNW,288,7.9,12.7,77,0.00,,,0.00,CWS Microserver 1.4,2013-03-12 02:33:00,
2013-03-11 21:38:00,26.3,19.9,29.87,WNW,286,7.9,12.7,76,0.00,,,0.00,CWS Microserver 1.4,2013-03-12 02:38:00,
2013-03-11 21:43:00,26.3,20.0,29.87,WNW,290,8.1,13.2,76,0.00,,,0.00,CWS Microserver 1.4,2013-03-12 02:43:00,
2013-03-11 21:48:00,26.3,20.1,29.87,WNW,296,6.3,13.2,77,0.00,,,0.00,CWS Microserver 1.4,2013-03-12 02:48:00,
2013-03-11 21:53:00,26.5,20.1,29.87,WNW,291,8.8,11.3,76,0.00,,,0.00,CWS Microserver 1.4,2013-03-12 02:53:00,
2013-03-11 22:03:00,26.3,19.7,29.87,WNW,285,9.1,13.7,75,0.00,,,0.00,CWS Microserver 1.4,2013-03-12 03:03:00,
2013-03-11 22:13:00,25.9,19.5,29.87,WNW,295,6.4,10.8,76,0.00,,,0.00,CWS Microserver 1.4,2013-03-12 03:13:00,
2013-03-11 22:18:00,25.7,19.3,29.87,WNW,288,7.6,10.4,76,0.00,,,0.00,CWS Microserver 1.4,2013-03-12 03:18:00,
2013-03-11 22:28:00,25.2,19.4,29.87,WNW,284,7.7,9.1,78,0.00,,,0.00,CWS Microserver 1.4,2013-03-12 03:28:00,
2013-03-11 22:33:00,25.0,19.3,29.88,West,279,7.5,9.3,78,0.00,,,0.00,CWS Microserver 1.4,2013-03-12 03:33:00,
2013-03-11 22:38:00,24.7,19.1,29.88,West,277,7.5,9.3,79,0.00,,,0.00,CWS Microserver 1.4,2013-03-12 03:38:00,
2013-03-11 22:43:00,24.7,19.2,29.88,West,278,8.1,9.9,79,0.00,,,0.00,CWS Microserver 1.4,2013-03-12 03:43:00,
2013-03-11 22:48:00,24.7,18.9,29.88,West,279,8.6,10.8,78,0.00,,,0.00,CWS Microserver 1.4,2013-03-12 03:48:00,
2013-03-11 22:53:00,24.8,18.1,29.88,West,281,7.5,14.7,75,0.00,,,0.00,CWS Microserver 1.4,2013-03-12 03:53:00,
2013-03-11 23:03:00,25.2,17.1,29.88,West,280,11.3,19.1,70,0.00,,,0.00,CWS Microserver 1.4,2013-03-12 04:03:00,
2013-03-11 23:08:00,25.0,17.2,29.88,West,276,12.1,16.5,72,0.00,,,0.00,CWS Microserver 1.4,2013-03-12 04:08:00,
2013-03-11 23:13:00,25.4,16.3,29.88,WNW,286,15.1,18.2,68,0.00,,,0.00,CWS Microserver 1.4,2013-03-12 04:13:00,
2013-03-11 23:18:00,25.9,16.5,29.88,WNW,284,15.0,20.5,67,0.00,,,0.00,CWS Microserver 1.4,2013-03-12 04:18:00,
2013-03-11 23:23:00,26.1,17.1,29.88,West,281,11.5,20.5,68,0.00,,,0.00,CWS Microserver 1.4,2013-03-12 04:23:00,
2013-03-11 23:28:00,26.1,17.3,29.88,West,281,13.4,19.2,68,0.00,,,0.00,CWS Microserver 1.4,2013-03-12 04:28:00,
2013-03-11 23:33:00,26.3,17.6,29.88,WNW,283,8.9,17.4,69,0.00,,,0.00,CWS Microserver 1.4,2013-03-12 04:33:00,
2013-03-11 23:38:00,26.3,18.2,29.88,WNW,283,17.3,18.3,71,0.00,,,0.00,CWS Microserver 1.4,2013-03-12 04:38:00,
2013-03-11 23:43:00,26.6,18.5,29.88,WNW,289,16.4,20.5,71,0.00,,,0.00,CWS Microserver 1.4,2013-03-12 04:43:00,
2013-03-11 23:48:00,26.8,19.0,29.88,WNW,285,16.0,20.5,71,0.00,,,0.00,CWS Microserver 1.4,2013-03-12 04:48:00,
2013-03-11 23:53:00,26.8,19.0,29.88,WNW,293,16.0,20.8,72,0.00,,,0.00,CWS Microserver 1.4,2013-03-12 04:53:00,
2013-03-11 23:58:00,27.0,19.7,29.88,WNW,297,14.0,20.8,73,0.00,,,0.00,CWS Microserver 1.4,2013-03-12 04:58:00,